Flag for U.S.A. Weather past 2 weeks in Vista, California, U.S.A.

Now
71 °F

Overcast.


Feels Like: 73 °F
Forecast: 65 / 77 °F
Wind: No wind

Location: McClellan-Palomar Airport

Current Time: Sep 19, 2014 at 5:22:31 AM

Latest Report: Sep 19, 2014 at 4:53 AM


Visibility: 10 mi

Pressure: 29.85 "Hg

Humidity: 76%

Dew point: 63 °F

Location of VistaLocation

Historic Weather in Vista — Graph

°F

Vista temperature yesterday

Maximum temperature yesterday: 77 °F (at 11:53 AM)
Minimum temperature yesterday: 70 °F (at 5:01 AM)
Average temperature yesterday: 73 °F

Past Weeks' High & Low Weather Summary

 TemperatureHumidityPressure
High98 °F (Sep 16, 4:53 PM)91% (Sep 14, 11:53 PM)29.91 "Hg (Sep 14, 11:53 PM)
Low67 °F (Sep 10, 4:53 AM)28% (Sep 8, 1:53 PM)29.66 "Hg (Sep 16, 5:53 PM)
Average75 °F70%29.79 "Hg
* Reported Sep 4 3:53 AM — Sep 19 3:53 AM, Vista, Weather by CustomWeather, © 2014

Note: Actual official high and low records may vary slightly from our data, if they occured in-between our weather recording intervals... More about our weather records

Advertising

Vista weather history for previous 24 hours

 ConditionsComfort  
Time TempWeatherWind HumidityBarometerVisibility
3:53 AM
Sep 19
70 °FOvercast.No wind79%29.85 "Hg10 mi
2:53 AM70 °FPassing clouds.No wind79%29.86 "Hg10 mi
1:53 AM70 °FPassing clouds.No wind79%29.85 "Hg10 mi
12:53 AM71 °FOvercast.No wind76%29.85 "Hg10 mi
11:53 PM
Sep 18
71 °FPassing clouds.3 mph78%29.86 "Hg10 mi
10:53 PM71 °FOvercast.5 mph78%29.86 "Hg10 mi
9:53 PM71 °FOvercast.No wind78%29.85 "Hg10 mi
8:53 PM72 °FOvercast.5 mph78%29.85 "Hg10 mi
7:53 PM72 °FOvercast.5 mph78%29.83 "Hg10 mi
6:53 PM73 °FOvercast.5 mph76%29.82 "Hg10 mi
5:53 PM73 °FOvercast.7 mph76%29.81 "Hg10 mi
4:53 PM74 °FOvercast.7 mph74%29.81 "Hg10 mi
3:53 PM76 °FSunny.10 mph69%29.81 "Hg10 mi
2:53 PM76 °FPassing clouds.13 mph67%29.82 "Hg10 mi
1:53 PM76 °FSunny.12 mph67%29.83 "Hg10 mi
12:53 PM76 °FSunny.9 mph64%29.85 "Hg10 mi
11:53 AM77 °FSunny.7 mph58%29.87 "Hg10 mi
10:53 AM75 °FSunny.6 mph58%29.88 "Hg10 mi
9:53 AM75 °FPassing clouds.N/A64%29.88 "Hg10 mi
8:53 AM72 °FPassing clouds.No wind73%29.87 "Hg10 mi
7:53 AM72 °FOvercast.No wind73%29.85 "Hg10 mi
6:53 AM70 °FOvercast.No wind79%29.84 "Hg10 mi
5:53 AM70 °FOvercast.No wind81%29.82 "Hg8 mi
5:01 AM70 °FPassing clouds.No wind84%29.82 "Hg10 mi
Weather by CustomWeather, © 2014

See weather overviewHow to use our weather pages